Northeast Philadelphia, PA

3:33 AM EST on December 13, 2017 (GMT -0500)
Northeast Philadelphia

Weather History for KPNE - May, 2013

Change the Weather History Date:

Thursday, May 23, 2013

  Actual Average Record
Temperature  
Mean Temperature 75 °F -  
Max Temperature 82 °F 70 °F 90 °F (2004)
Min Temperature 66 °F 52 °F 42 °F (2002)
Cooling Degree Days 10    
Growing Degree Days 25 (Base 50)    
Moisture  
Dew Point 66 °F    
Average Humidity 79    
Maximum Humidity 90    
Minimum Humidity 54    
Precipitation  
Precipitation 0.12 in - - ()
Sea Level Pressure  
Sea Level Pressure 29.85 in    
Wind  
Wind Speed 8 mph (SSW)    
Max Wind Speed 20 mph    
Max Gust Speed 28 mph    
Visibility 9 miles    
Events Rain , Thunderstorm    
Averages and records for this station are not official NWS values.
T = Trace of Precipitation, MM = Missing Value Source: NWS Daily Summary

Daily Weather History Graph

Daily Weather History Graph

Search for Another Location

Airport or City:

Trip Planner

Search our weather history database for the weather conditions in past years. The results will help you decide how hot, cold, wet, or windy it might be!

Date:

Astronomy

May. 23, 2013 Rise Set
Actual Time 5:37 AM EDT 8:16 PM EDT
Civil Twilight 5:06 AM EDT 8:47 PM EDT
Nautical Twilight 4:27 AM EDT 9:27 PM EDT
Astronomical Twilight 3:43 AM EDT 10:11 PM EDT
Moon 6:45 PM EDT (5/23) 4:21 AM EDT (5/23)
Length of Visible Light 15h 41m
Length of Day
14h 38m
Waxing Gibbous, 97% of the Moon is Illuminated
May 23
Waxing Gibbous
May 25
Full
May 31
Last Quarter
Jun 8
New
Jun 16
First Quarter

Hourly Weather History & Observations

Time (EDT) Temp. Heat Index Dew Point Humidity Pressure Visibility Wind Dir Wind Speed Gust Speed Precip Events Conditions
12:54 AM 73.9 °F - 66.0 °F 76% 29.89 in 10.0 mi SSW 5.8 mph - N/A   Mostly Cloudy
1:54 AM 72.0 °F - 66.9 °F 84% 29.88 in 10.0 mi Calm Calm - 0.01 in Rain Light Rain
2:54 AM 71.1 °F - 66.9 °F 87% 29.87 in 10.0 mi Variable 5.8 mph - 0.00 in   Overcast
3:54 AM 71.1 °F - 66.9 °F 87% 29.87 in 10.0 mi SSW 8.1 mph - N/A   Mostly Cloudy
4:54 AM 72.0 °F - 66.9 °F 84% 29.88 in 10.0 mi SW 8.1 mph - N/A   Overcast
5:44 AM 71.6 °F - 66.2 °F 83% 29.89 in 10.0 mi SSW 8.1 mph 16.1 mph N/A   Mostly Cloudy
5:54 AM 72.0 °F - 66.0 °F 81% 29.89 in 10.0 mi SW 10.4 mph - N/A   Overcast
6:54 AM 72.0 °F - 66.9 °F 84% 29.90 in 10.0 mi SW 10.4 mph - N/A   Overcast
7:54 AM 73.0 °F - 66.9 °F 81% 29.91 in 10.0 mi SW 10.4 mph 18.4 mph N/A   Overcast
8:54 AM 73.0 °F - 66.9 °F 81% 29.91 in 10.0 mi SSW 9.2 mph - N/A   Overcast
9:54 AM 75.0 °F - 66.9 °F 76% 29.90 in 10.0 mi SSW 12.7 mph 20.7 mph N/A   Overcast
10:54 AM 73.9 °F - 66.0 °F 76% 29.90 in 10.0 mi SSW 9.2 mph 19.6 mph 0.00 in Rain Light Rain
11:30 AM 75.2 °F - 64.4 °F 69% 29.90 in 10.0 mi SSW 11.5 mph 26.5 mph 0.00 in   Overcast
11:54 AM 77.0 °F - 64.9 °F 66% 29.89 in 10.0 mi SSW 12.7 mph 21.9 mph 0.00 in   Overcast
12:54 PM 79.0 °F - 64.0 °F 60% 29.87 in 10.0 mi SW 17.3 mph 24.2 mph N/A   Mostly Cloudy
1:54 PM 81.0 °F 82.7 °F 64.9 °F 58% 29.84 in 10.0 mi SSW 11.5 mph - N/A   Scattered Clouds
2:54 PM 82.0 °F 83.4 °F 64.0 °F 54% 29.83 in 10.0 mi SW 17.3 mph 26.5 mph N/A   Scattered Clouds
3:41 PM 73.4 °F - 66.2 °F 78% 29.84 in 10.0 mi South 9.2 mph 20.7 mph N/A Thunderstorm Mostly Cloudy
3:54 PM 70.0 °F - 66.0 °F 87% 29.84 in 5.0 mi South 12.7 mph 24.2 mph 0.00 in Rain Light Rain
4:54 PM 73.0 °F - 69.1 °F 87% 29.81 in 10.0 mi Variable 5.8 mph - 0.10 in   Scattered Clouds
5:45 PM 73.4 °F - 66.2 °F 78% 29.81 in 10.0 mi South 10.4 mph 20.7 mph 0.00 in   Overcast
5:54 PM 73.0 °F - 66.9 °F 81% 29.81 in 10.0 mi SSW 9.2 mph 17.3 mph 0.00 in   Mostly Cloudy
6:16 PM 73.4 °F - 66.2 °F 78% 29.81 in 10.0 mi South 8.1 mph - N/A   Mostly Cloudy
6:54 PM 73.0 °F - 66.0 °F 79% 29.80 in 10.0 mi Variable 4.6 mph - N/A   Scattered Clouds
7:40 PM 71.6 °F - 64.4 °F 78% 29.80 in 10.0 mi South 8.1 mph - N/A   Mostly Cloudy
7:54 PM 72.0 °F - 64.9 °F 78% 29.81 in 10.0 mi South 6.9 mph - N/A   Mostly Cloudy
8:54 PM 71.1 °F - 64.9 °F 81% 29.80 in 10.0 mi South 9.2 mph - N/A   Overcast
9:54 PM 71.1 °F - 64.9 °F 81% 29.79 in 10.0 mi SSW 9.2 mph - N/A   Overcast
10:19 PM 69.8 °F - 64.4 °F 83% 29.78 in 10.0 mi Variable 4.6 mph - N/A   Overcast
10:54 PM 70.0 °F - 64.9 °F 84% 29.78 in 10.0 mi Variable 5.8 mph - N/A   Overcast
11:54 PM 68.0 °F - 64.9 °F 90% 29.78 in 5.0 mi West 18.4 mph 27.6 mph 0.01 in Rain Light Rain
11:57 PM 66.2 °F - 62.6 °F 88% 29.78 in 1.8 mi West 19.6 mph 27.6 mph 0.05 in Rain Heavy Rain